Time,TemperatureF,DewpointF,PressureIn,WindDirection,WindDirectionDegrees,WindSpeedMPH,WindSpeedGustMPH,Humidity,HourlyPrecipIn,Conditions,Clouds,dailyrainin,SoftwareType,DateUTC
2013-03-17 00:00:00,21.9,16.4,30.09,WSW,247,0.0,0.0,79,0.00,,,0.00,WUHU21623XXSP,2013-03-17 05:00:00,
2013-03-17 00:05:00,21.7,16.2,30.09,WSW,247,0.0,0.0,79,0.00,,,0.00,WUHU21623XXSP,2013-03-17 05:05:00,
2013-03-17 00:10:00,21.7,16.2,30.09,WSW,247,0.0,0.0,79,0.00,,,0.00,WUHU21623XXSP,2013-03-17 05:10:00,
2013-03-17 00:15:00,21.9,16.4,30.09,WSW,247,0.0,0.0,79,0.00,,,0.00,WUHU21623XXSP,2013-03-17 05:15:00,
2013-03-17 00:20:00,21.9,16.4,30.10,WSW,247,0.0,0.0,79,0.00,,,0.00,WUHU21623XXSP,2013-03-17 05:20:00,
2013-03-17 00:25:00,21.7,16.2,30.10,WSW,247,0.0,0.0,79,0.00,,,0.00,WUHU21623XXSP,2013-03-17 05:25:00,
2013-03-17 00:30:00,21.4,15.9,30.10,WSW,247,0.0,0.0,79,0.00,,,0.00,WUHU21623XXSP,2013-03-17 05:30:00,
2013-03-17 00:35:00,21.2,15.7,30.10,WSW,247,0.0,0.0,79,0.00,,,0.00,WUHU21623XXSP,2013-03-17 05:35:00,
2013-03-17 00:40:00,21.0,15.5,30.10,WSW,247,0.0,0.0,79,0.00,,,0.00,WUHU21623XXSP,2013-03-17 05:40:00,
2013-03-17 00:45:00,21.0,15.8,30.10,WSW,247,0.0,0.0,80,0.00,,,0.00,WUHU21623XXSP,2013-03-17 05:45:00,
2013-03-17 00:50:00,21.0,15.8,30.10,WSW,247,0.0,0.0,80,0.00,,,0.00,WUHU21623XXSP,2013-03-17 05:50:00,
2013-03-17 00:55:00,21.0,15.8,30.10,WSW,247,0.0,0.0,80,0.00,,,0.00,WUHU21623XXSP,2013-03-17 05:55:00,
2013-03-17 01:00:00,21.4,16.2,30.10,WSW,247,0.0,2.2,80,0.00,,,0.00,WUHU21623XXSP,2013-03-17 06:00:00,
2013-03-17 01:05:00,21.7,16.2,30.11,WSW,247,0.0,2.2,79,0.00,,,0.00,WUHU21623XXSP,2013-03-17 06:05:00,
2013-03-17 01:10:00,21.9,16.4,30.11,WSW,247,0.0,0.0,79,0.00,,,0.00,WUHU21623XXSP,2013-03-17 06:10:00,
2013-03-17 01:15:00,21.9,16.4,30.11,WSW,247,0.0,0.0,79,0.00,,,0.00,WUHU21623XXSP,2013-03-17 06:15:00,
2013-03-17 01:20:00,21.9,16.4,30.11,WSW,247,0.0,0.0,79,0.00,,,0.00,WUHU21623XXSP,2013-03-17 06:20:00,
2013-03-17 01:25:00,21.9,16.1,30.11,WSW,247,0.0,0.0,78,0.00,,,0.00,WUHU21623XXSP,2013-03-17 06:25:00,
2013-03-17 01:30:00,21.9,16.1,30.11,WSW,247,0.0,0.0,78,0.00,,,0.00,WUHU21623XXSP,2013-03-17 06:30:00,
2013-03-17 01:35:00,21.9,16.1,30.11,WSW,247,0.0,1.3,78,0.00,,,0.00,WUHU21623XXSP,2013-03-17 06:35:00,
2013-03-17 01:40:00,22.1,16.0,30.10,WSW,247,2.9,2.9,77,0.00,,,0.00,WUHU21623XXSP,2013-03-17 06:40:00,
2013-03-17 01:45:00,22.3,15.8,30.11,WSW,247,4.7,7.8,75,0.00,,,0.00,WUHU21623XXSP,2013-03-17 06:45:00,
2013-03-17 01:50:00,22.3,15.5,30.11,WSW,247,2.5,7.8,75,0.00,,,0.00,WUHU21623XXSP,2013-03-17 06:50:00,
2013-03-17 01:55:00,22.5,15.4,30.11,WSW,247,0.0,4.7,74,0.00,,,0.00,WUHU21623XXSP,2013-03-17 06:55:00,
2013-03-17 02:00:00,22.3,15.2,30.11,WSW,247,2.2,2.2,74,0.00,,,0.00,WUHU21623XXSP,2013-03-17 07:00:00,
2013-03-17 02:05:00,22.1,15.0,30.11,WSW,247,0.0,2.2,74,0.00,,,0.00,WUHU21623XXSP,2013-03-17 07:05:00,
2013-03-17 02:10:00,21.9,14.9,30.11,WSW,247,0.0,2.2,74,0.00,,,0.00,WUHU21623XXSP,2013-03-17 07:10:00,
2013-03-17 02:15:00,21.9,14.9,30.11,WSW,247,0.0,1.6,74,0.00,,,0.00,WUHU21623XXSP,2013-03-17 07:15:00,
2013-03-17 02:20:00,21.9,14.9,30.11,WSW,247,0.0,1.6,74,0.00,,,0.00,WUHU21623XXSP,2013-03-17 07:20:00,
2013-03-17 02:25:00,21.7,14.7,30.12,WSW,247,0.0,0.0,74,0.00,,,0.00,WUHU21623XXSP,2013-03-17 07:25:00,
2013-03-17 02:30:00,21.6,14.2,30.12,WSW,247,0.0,0.0,73,0.00,,,0.00,WUHU21623XXSP,2013-03-17 07:30:00,
2013-03-17 02:35:00,21.6,14.2,30.12,WSW,247,0.0,2.2,73,0.00,,,0.00,WUHU21623XXSP,2013-03-17 07:35:00,
2013-03-17 02:40:00,21.6,14.2,30.12,WSW,247,0.0,2.2,73,0.00,,,0.00,WUHU21623XXSP,2013-03-17 07:40:00,
2013-03-17 02:45:00,21.4,13.7,30.11,WSW,247,0.0,0.0,72,0.00,,,0.00,WUHU21623XXSP,2013-03-17 07:45:00,
2013-03-17 02:50:00,21.4,13.7,30.12,WSW,247,3.6,3.6,71,0.00,,,0.00,WUHU21623XXSP,2013-03-17 07:50:00,
2013-03-17 02:55:00,21.4,13.4,30.12,WSW,247,0.0,3.6,71,0.00,,,0.00,WUHU21623XXSP,2013-03-17 07:55:00,
2013-03-17 03:00:00,21.2,13.1,30.12,WSW,247,4.0,4.0,70,0.00,,,0.00,WUHU21623XXSP,2013-03-17 08:00:00,
2013-03-17 03:05:00,21.0,12.7,30.11,WSW,247,0.0,4.0,70,0.00,,,0.00,WUHU21623XXSP,2013-03-17 08:05:00,
2013-03-17 03:10:00,21.0,12.7,30.12,WSW,247,0.0,4.0,70,0.00,,,0.00,WUHU21623XXSP,2013-03-17 08:10:00,
2013-03-17 03:15:00,20.8,12.7,30.12,WSW,247,0.0,0.0,70,0.00,,,0.00,WUHU21623XXSP,2013-03-17 08:15:00,
2013-03-17 03:20:00,20.8,12.6,30.12,WSW,247,0.0,4.5,70,0.00,,,0.00,WUHU21623XXSP,2013-03-17 08:20:00,
2013-03-17 03:25:00,20.8,12.6,30.12,WSW,247,2.5,4.5,70,0.00,,,0.00,WUHU21623XXSP,2013-03-17 08:25:00,
2013-03-17 03:30:00,20.5,12.2,30.12,WSW,247,4.7,4.7,70,0.00,,,0.00,WUHU21623XXSP,2013-03-17 08:30:00,
2013-03-17 03:35:00,20.5,11.9,30.13,WSW,247,0.0,4.7,69,0.00,,,0.00,WUHU21623XXSP,2013-03-17 08:35:00,
2013-03-17 03:40:00,20.3,12.0,30.12,WSW,247,2.9,2.9,70,0.00,,,0.00,WUHU21623XXSP,2013-03-17 08:40:00,
2013-03-17 03:45:00,20.1,11.8,30.12,WSW,247,0.0,2.9,70,0.00,,,0.00,WUHU21623XXSP,2013-03-17 08:45:00,
2013-03-17 03:50:00,20.1,11.8,30.12,WSW,247,0.0,0.0,70,0.00,,,0.00,WUHU21623XXSP,2013-03-17 08:50:00,
2013-03-17 03:55:00,19.9,11.8,30.12,WSW,247,2.9,2.9,70,0.00,,,0.00,WUHU21623XXSP,2013-03-17 08:55:00,
2013-03-17 04:00:00,19.9,11.7,30.11,WSW,247,0.0,2.9,70,0.00,,,0.00,WUHU21623XXSP,2013-03-17 09:00:00,
2013-03-17 04:05:00,19.8,11.1,30.11,WSW,247,6.3,6.3,69,0.00,,,0.00,WUHU21623XXSP,2013-03-17 09:05:00,
2013-03-17 04:10:00,19.4,10.8,30.11,WSW,247,1.3,6.3,69,0.00,,,0.00,WUHU21623XXSP,2013-03-17 09:10:00,
2013-03-17 04:15:00,19.4,10.8,30.11,WSW,247,4.7,5.4,69,0.00,,,0.00,WUHU21623XXSP,2013-03-17 09:15:00,
2013-03-17 04:20:00,19.2,10.6,30.11,WSW,247,5.1,5.1,69,0.00,,,0.00,WUHU21623XXSP,2013-03-17 09:20:00,
2013-03-17 04:25:00,19.0,10.5,30.11,WSW,247,5.1,7.6,69,0.00,,,0.00,WUHU21623XXSP,2013-03-17 09:25:00,
2013-03-17 04:30:00,18.9,10.6,30.10,WSW,247,6.3,10.3,70,0.00,,,0.00,WUHU21623XXSP,2013-03-17 09:30:00,
2013-03-17 04:35:00,18.7,10.1,30.10,WSW,247,8.1,10.3,69,0.00,,,0.00,WUHU21623XXSP,2013-03-17 09:35:00,
2013-03-17 04:40:00,18.7,10.1,30.10,WSW,247,9.2,9.2,69,0.00,,,0.00,WUHU21623XXSP,2013-03-17 09:40:00,
2013-03-17 04:45:00,18.5,10.0,30.11,WSW,247,10.1,13.6,69,0.00,,,0.00,WUHU21623XXSP,2013-03-17 09:45:00,
2013-03-17 04:50:00,18.3,9.8,30.10,WSW,247,9.4,13.6,69,0.00,,,0.00,WUHU21623XXSP,2013-03-17 09:50:00,
2013-03-17 04:55:00,18.3,9.8,30.10,WSW,247,5.8,11.9,69,0.00,,,0.00,WUHU21623XXSP,2013-03-17 09:55:00,
2013-03-17 05:00:00,18.1,10.0,30.10,WSW,247,6.7,11.9,70,0.00,,,0.00,WUHU21623XXSP,2013-03-17 10:00:00,
2013-03-17 05:05:00,17.8,9.7,30.10,WSW,247,9.8,9.8,70,0.00,,,0.00,WUHU21623XXSP,2013-03-17 10:05:00,
2013-03-17 05:10:00,17.8,9.7,30.10,WSW,247,7.6,9.8,70,0.00,,,0.00,WUHU21623XXSP,2013-03-17 10:10:00,
2013-03-17 05:15:00,17.8,9.7,30.11,WSW,247,6.7,8.9,70,0.00,,,0.00,WUHU21623XXSP,2013-03-17 10:15:00,
2013-03-17 05:20:00,17.8,9.7,30.10,WSW,247,6.3,9.4,70,0.00,,,0.00,WUHU21623XXSP,2013-03-17 10:20:00,
2013-03-17 05:25:00,17.4,9.3,30.11,WSW,247,2.7,9.4,70,0.00,,,0.00,WUHU21623XXSP,2013-03-17 10:25:00,
2013-03-17 05:30:00,17.4,9.3,30.11,WSW,247,9.2,9.2,70,0.00,,,0.00,WUHU21623XXSP,2013-03-17 10:30:00,
2013-03-17 05:35:00,17.4,9.3,30.11,WSW,247,6.3,12.5,70,0.00,,,0.00,WUHU21623XXSP,2013-03-17 10:35:00,
2013-03-17 05:40:00,17.2,9.1,30.11,WSW,247,8.7,12.5,70,0.00,,,0.00,WUHU21623XXSP,2013-03-17 10:40:00,
2013-03-17 05:45:00,17.2,9.1,30.11,WSW,247,5.4,8.9,70,0.00,,,0.00,WUHU21623XXSP,2013-03-17 10:45:00,
2013-03-17 05:50:00,17.2,9.1,30.11,WSW,247,10.5,14.3,70,0.00,,,0.00,WUHU21623XXSP,2013-03-17 10:50:00,
2013-03-17 05:55:00,16.9,8.8,30.12,WSW,247,9.4,14.3,70,0.00,,,0.00,WUHU21623XXSP,2013-03-17 10:55:00,
2013-03-17 06:00:00,16.9,9.1,30.13,WSW,247,10.7,10.7,71,0.00,,,0.00,WUHU21623XXSP,2013-03-17 11:00:00,
2013-03-17 06:05:00,16.9,8.8,30.13,WSW,247,8.7,10.7,70,0.00,,,0.00,WUHU21623XXSP,2013-03-17 11:05:00,
2013-03-17 06:10:00,16.7,8.6,30.13,WSW,247,4.9,10.7,70,0.00,,,0.00,WUHU21623XXSP,2013-03-17 11:10:00,
2013-03-17 06:15:00,16.7,8.6,30.13,WSW,247,5.6,8.9,70,0.00,,,0.00,WUHU21623XXSP,2013-03-17 11:15:00,
2013-03-17 06:20:00,16.5,8.4,30.13,WSW,247,7.2,8.9,70,0.00,,,0.00,WUHU21623XXSP,2013-03-17 11:20:00,
2013-03-17 06:25:00,16.3,8.2,30.13,WSW,247,8.3,8.3,70,0.00,,,0.00,WUHU21623XXSP,2013-03-17 11:25:00,
2013-03-17 06:30:00,16.3,8.2,30.13,WSW,247,4.7,12.3,70,0.00,,,0.00,WUHU21623XXSP,2013-03-17 11:30:00,
2013-03-17 06:35:00,16.3,8.5,30.13,WSW,247,5.8,12.3,71,0.00,,,0.00,WUHU21623XXSP,2013-03-17 11:35:00,
2013-03-17 06:40:00,16.2,8.3,30.13,WSW,247,4.9,7.4,71,0.00,,,0.00,WUHU21623XXSP,2013-03-17 11:40:00,
2013-03-17 06:45:00,16.2,8.3,30.14,WSW,247,5.4,6.9,71,0.00,,,0.00,WUHU21623XXSP,2013-03-17 11:45:00,
2013-03-17 06:50:00,16.2,8.2,30.14,WSW,247,5.1,6.9,71,0.00,,,0.00,WUHU21623XXSP,2013-03-17 11:50:00,
2013-03-17 06:55:00,16.3,8.5,30.14,WSW,247,10.7,10.7,70,0.00,,,0.00,WUHU21623XXSP,2013-03-17 11:55:00,
2013-03-17 07:00:00,16.2,8.3,30.15,WSW,247,9.6,10.7,71,0.00,,,0.00,WUHU21623XXSP,2013-03-17 12:00:00,
2013-03-17 07:05:00,16.0,8.2,30.14,WSW,247,6.0,9.6,71,0.00,,,0.00,WUHU21623XXSP,2013-03-17 12:05:00,
2013-03-17 07:10:00,16.0,8.2,30.15,WSW,247,3.8,6.0,71,0.00,,,0.00,WUHU21623XXSP,2013-03-17 12:10:00,
2013-03-17 07:15:00,15.8,8.0,30.16,WSW,247,5.4,7.8,71,0.00,,,0.00,WUHU21623XXSP,2013-03-17 12:15:00,
2013-03-17 07:20:00,16.2,8.3,30.16,WSW,247,7.2,7.8,71,0.00,,,0.00,WUHU21623XXSP,2013-03-17 12:20:00,
2013-03-17 07:25:00,16.3,8.2,30.16,WSW,247,0.0,7.2,70,0.00,,,0.00,WUHU21623XXSP,2013-03-17 12:25:00,
2013-03-17 07:30:00,16.3,8.2,30.16,WSW,247,4.3,7.2,70,0.00,,,0.00,WUHU21623XXSP,2013-03-17 12:30:00,
2013-03-17 07:35:00,16.3,8.2,30.16,WSW,247,6.3,7.2,70,0.00,,,0.00,WUHU21623XXSP,2013-03-17 12:35:00,
2013-03-17 07:40:00,16.2,8.1,30.16,WSW,247,4.0,6.3,70,0.00,,,0.00,WUHU21623XXSP,2013-03-17 12:40:00,
2013-03-17 07:45:00,16.3,8.2,30.16,WSW,247,2.2,6.5,70,0.00,,,0.00,WUHU21623XXSP,2013-03-17 12:45:00,
2013-03-17 07:50:00,16.3,8.2,30.16,WSW,247,7.2,7.2,70,0.00,,,0.00,WUHU21623XXSP,2013-03-17 12:50:00,
2013-03-17 07:55:00,16.3,8.2,30.16,WSW,247,4.3,11.2,70,0.00,,,0.00,WUHU21623XXSP,2013-03-17 12:55:00,
2013-03-17 08:00:00,16.3,8.2,30.17,WSW,247,8.9,11.2,70,0.00,,,0.00,WUHU21623XXSP,2013-03-17 13:00:00,
2013-03-17 08:05:00,16.5,8.4,30.17,WSW,247,3.8,8.9,70,0.00,,,0.00,WUHU21623XXSP,2013-03-17 13:05:00,
2013-03-17 08:10:00,16.9,8.4,30.17,WSW,247,4.5,6.7,69,0.00,,,0.00,WUHU21623XXSP,2013-03-17 13:10:00,
2013-03-17 08:15:00,17.4,9.0,30.16,WSW,247,6.7,7.4,69,0.00,,,0.00,WUHU21623XXSP,2013-03-17 13:15:00,
2013-03-17 08:20:00,17.6,8.8,30.17,WSW,247,7.2,7.4,68,0.00,,,0.00,WUHU21623XXSP,2013-03-17 13:20:00,
2013-03-17 08:25:00,18.0,9.1,30.17,WSW,247,6.9,7.6,68,0.00,,,0.00,WUHU21623XXSP,2013-03-17 13:25:00,
2013-03-17 08:30:00,18.3,9.5,30.16,WSW,247,6.5,7.6,68,0.00,,,0.00,WUHU21623XXSP,2013-03-17 13:30:00,
2013-03-17 08:35:00,18.7,9.4,30.17,WSW,247,7.4,7.4,67,0.00,,,0.00,WUHU21623XXSP,2013-03-17 13:35:00,
2013-03-17 08:40:00,18.9,9.6,30.17,WSW,247,4.7,7.4,67,0.00,,,0.00,WUHU21623XXSP,2013-03-17 13:40:00,
2013-03-17 08:45:00,19.0,9.8,30.18,WSW,247,2.2,5.4,67,0.00,,,0.00,WUHU21623XXSP,2013-03-17 13:45:00,
2013-03-17 08:50:00,18.7,9.4,30.18,WSW,247,5.4,5.4,67,0.00,,,0.00,WUHU21623XXSP,2013-03-17 13:50:00,
2013-03-17 08:55:00,18.5,9.3,30.18,WSW,247,3.6,6.7,67,0.00,,,0.00,WUHU21623XXSP,2013-03-17 13:55:00,
2013-03-17 09:00:00,18.5,9.4,30.18,WSW,247,7.2,8.3,67,0.00,,,0.00,WUHU21623XXSP,2013-03-17 14:00:00,
2013-03-17 09:05:00,19.0,9.9,30.18,WSW,247,13.0,13.0,67,0.00,,,0.00,WUHU21623XXSP,2013-03-17 14:05:00,
2013-03-17 09:10:00,19.2,9.8,30.17,WSW,247,6.0,13.0,67,0.00,,,0.00,WUHU21623XXSP,2013-03-17 14:10:00,
2013-03-17 09:15:00,19.6,10.3,30.18,WSW,247,9.4,9.8,67,0.00,,,0.00,WUHU21623XXSP,2013-03-17 14:15:00,
2013-03-17 09:20:00,19.6,10.3,30.18,WSW,247,8.7,9.8,66,0.00,,,0.00,WUHU21623XXSP,2013-03-17 14:20:00,
2013-03-17 09:25:00,19.9,10.6,30.18,WSW,247,9.2,9.2,67,0.00,,,0.00,WUHU21623XXSP,2013-03-17 14:25:00,
2013-03-17 09:30:00,20.3,10.7,30.18,WSW,247,11.0,11.0,66,0.00,,,0.00,WUHU21623XXSP,2013-03-17 14:30:00,
2013-03-17 09:35:00,20.3,10.8,30.18,WSW,247,11.9,11.9,66,0.00,,,0.00,WUHU21623XXSP,2013-03-17 14:35:00,
2013-03-17 09:40:00,20.8,11.5,30.18,WSW,247,11.0,11.9,67,0.00,,,0.00,WUHU21623XXSP,2013-03-17 14:40:00,
2013-03-17 09:45:00,20.8,11.5,30.18,WSW,247,5.8,12.1,67,0.00,,,0.00,WUHU21623XXSP,2013-03-17 14:45:00,
2013-03-17 09:50:00,21.0,11.4,30.18,WSW,247,8.9,12.1,66,0.00,,,0.00,WUHU21623XXSP,2013-03-17 14:50:00,
2013-03-17 09:55:00,21.4,12.1,30.18,WSW,247,9.6,11.4,66,0.00,,,0.00,WUHU21623XXSP,2013-03-17 14:55:00,
2013-03-17 10:00:00,22.1,12.4,30.18,WSW,247,9.6,9.6,66,0.00,,,0.00,WUHU21623XXSP,2013-03-17 15:00:00,
2013-03-17 10:05:00,22.3,12.6,30.18,WSW,247,4.9,9.6,66,0.00,,,0.00,WUHU21623XXSP,2013-03-17 15:05:00,
2013-03-17 10:10:00,22.8,13.1,30.18,WSW,247,8.1,8.1,66,0.00,,,0.00,WUHU21623XXSP,2013-03-17 15:10:00,
2013-03-17 10:15:00,22.6,12.9,30.18,WSW,247,6.3,12.5,66,0.00,,,0.00,WUHU21623XXSP,2013-03-17 15:15:00,
2013-03-17 10:20:00,22.8,13.1,30.18,WSW,247,8.3,12.5,66,0.00,,,0.00,WUHU21623XXSP,2013-03-17 15:20:00,
2013-03-17 10:25:00,23.2,13.1,30.17,WSW,247,8.3,8.3,66,0.00,,,0.00,WUHU21623XXSP,2013-03-17 15:25:00,
2013-03-17 10:30:00,23.4,13.3,30.17,WSW,247,5.8,8.3,65,0.00,,,0.00,WUHU21623XXSP,2013-03-17 15:30:00,
2013-03-17 10:35:00,23.5,13.4,30.17,WSW,247,7.6,7.6,65,0.00,,,0.00,WUHU21623XXSP,2013-03-17 15:35:00,
2013-03-17 10:40:00,23.9,14.1,30.18,WSW,247,6.9,7.6,66,0.00,,,0.00,WUHU21623XXSP,2013-03-17 15:40:00,
2013-03-17 10:45:00,24.1,13.6,30.18,WSW,247,3.8,8.3,64,0.00,,,0.00,WUHU21623XXSP,2013-03-17 15:45:00,
2013-03-17 10:50:00,24.1,13.9,30.17,WSW,247,8.9,8.9,65,0.00,,,0.00,WUHU21623XXSP,2013-03-17 15:50:00,
2013-03-17 10:55:00,24.1,13.9,30.17,WSW,247,10.3,10.3,66,0.00,,,0.00,WUHU21623XXSP,2013-03-17 15:55:00,
2013-03-17 11:00:00,24.6,14.8,30.18,WSW,247,6.7,10.3,66,0.00,,,0.00,WUHU21623XXSP,2013-03-17 16:00:00,
2013-03-17 11:05:00,25.0,14.8,30.18,WSW,247,6.7,9.6,65,0.00,,,0.00,WUHU21623XXSP,2013-03-17 16:05:00,
2013-03-17 11:10:00,25.0,15.1,30.17,WSW,247,8.9,9.6,66,0.00,,,0.00,WUHU21623XXSP,2013-03-17 16:10:00,
2013-03-17 11:15:00,25.2,15.3,30.17,WSW,247,2.9,8.9,66,0.00,,,0.00,WUHU21623XXSP,2013-03-17 16:15:00,
2013-03-17 11:20:00,25.7,15.8,30.17,WSW,247,6.9,8.9,66,0.00,,,0.00,WUHU21623XXSP,2013-03-17 16:20:00,
2013-03-17 11:25:00,25.9,16.0,30.16,WSW,247,10.3,10.3,66,0.00,,,0.00,WUHU21623XXSP,2013-03-17 16:25:00,
2013-03-17 11:30:00,26.1,15.8,30.16,WSW,247,7.4,10.3,65,0.00,,,0.00,WUHU21623XXSP,2013-03-17 16:30:00,
2013-03-17 11:35:00,25.7,15.5,30.16,WSW,247,9.2,9.4,65,0.00,,,0.00,WUHU21623XXSP,2013-03-17 16:35:00,
2013-03-17 11:40:00,26.4,16.2,30.16,WSW,247,5.8,9.2,65,0.00,,,0.00,WUHU21623XXSP,2013-03-17 16:40:00,
2013-03-17 11:45:00,26.4,16.2,30.16,WSW,247,6.3,9.2,65,0.00,,,0.00,WUHU21623XXSP,2013-03-17 16:45:00,
2013-03-17 11:50:00,26.4,16.2,30.16,WSW,247,5.8,9.2,65,0.00,,,0.00,WUHU21623XXSP,2013-03-17 16:50:00,
2013-03-17 11:55:00,27.3,16.5,30.16,WSW,247,5.4,8.9,64,0.00,,,0.00,WUHU21623XXSP,2013-03-17 16:55:00,
2013-03-17 12:00:00,27.7,16.7,30.16,WSW,247,6.3,8.9,63,0.00,,,0.00,WUHU21623XXSP,2013-03-17 17:00:00,
2013-03-17 12:05:00,27.7,17.1,30.16,WSW,247,14.3,14.3,64,0.00,,,0.00,WUHU21623XXSP,2013-03-17 17:05:00,
2013-03-17 12:10:00,27.5,16.9,30.16,WSW,247,4.0,14.3,64,0.00,,,0.00,WUHU21623XXSP,2013-03-17 17:10:00,
2013-03-17 12:15:00,28.0,16.7,30.16,WSW,247,3.8,7.4,62,0.00,,,0.00,WUHU21623XXSP,2013-03-17 17:15:00,
2013-03-17 12:20:00,27.7,16.9,30.16,WSW,247,6.9,6.9,63,0.00,,,0.00,WUHU21623XXSP,2013-03-17 17:20:00,
2013-03-17 12:25:00,27.9,16.9,30.15,WSW,247,7.4,7.4,63,0.00,,,0.00,WUHU21623XXSP,2013-03-17 17:25:00,
2013-03-17 12:30:00,28.0,17.1,30.15,WSW,247,7.2,7.8,63,0.00,,,0.00,WUHU21623XXSP,2013-03-17 17:30:00,
2013-03-17 12:35:00,28.2,17.2,30.15,WSW,247,11.9,11.9,63,0.00,,,0.00,WUHU21623XXSP,2013-03-17 17:35:00,
2013-03-17 12:40:00,28.2,17.2,30.15,WSW,247,15.0,15.0,63,0.00,,,0.00,WUHU21623XXSP,2013-03-17 17:40:00,
2013-03-17 12:45:00,28.0,17.4,30.15,WSW,247,7.6,15.0,64,0.00,,,0.00,WUHU21623XXSP,2013-03-17 17:45:00,
2013-03-17 12:50:00,28.0,17.4,30.15,WSW,247,6.0,10.5,64,0.00,,,0.00,WUHU21623XXSP,2013-03-17 17:50:00,
2013-03-17 12:55:00,28.0,17.2,30.14,WSW,247,8.7,10.5,64,0.00,,,0.00,WUHU21623XXSP,2013-03-17 17:55:00,
2013-03-17 13:00:00,28.8,18.1,30.14,WSW,247,8.1,10.7,64,0.00,,,0.00,WUHU21623XXSP,2013-03-17 18:00:00,
2013-03-17 13:05:00,28.9,17.9,30.14,WSW,247,9.4,10.7,63,0.00,,,0.00,WUHU21623XXSP,2013-03-17 18:05:00,
2013-03-17 13:10:00,28.0,17.4,30.14,WSW,247,9.8,10.7,64,0.00,,,0.00,WUHU21623XXSP,2013-03-17 18:10:00,
2013-03-17 13:15:00,28.2,17.6,30.13,WSW,247,9.6,11.9,64,0.00,,,0.00,WUHU21623XXSP,2013-03-17 18:15:00,
2013-03-17 13:20:00,28.2,18.0,30.14,WSW,247,13.0,13.0,65,0.00,,,0.00,WUHU21623XXSP,2013-03-17 18:20:00,
2013-03-17 13:25:00,28.0,17.4,30.13,WSW,247,10.3,13.0,64,0.00,,,0.00,WUHU21623XXSP,2013-03-17 18:25:00,
2013-03-17 13:30:00,28.2,18.0,30.13,WSW,247,8.5,11.9,65,0.00,,,0.00,WUHU21623XXSP,2013-03-17 18:30:00,
2013-03-17 13:35:00,28.2,18.0,30.12,WSW,247,12.5,13.2,65,0.00,,,0.00,WUHU21623XXSP,2013-03-17 18:35:00,
2013-03-17 13:40:00,28.6,18.3,30.12,WSW,247,9.4,13.2,65,0.00,,,0.00,WUHU21623XXSP,2013-03-17 18:40:00,
2013-03-17 13:45:00,29.1,18.8,30.12,WSW,247,8.5,12.5,63,0.00,,,0.00,WUHU21623XXSP,2013-03-17 18:45:00,
2013-03-17 13:50:00,29.5,18.8,30.11,WSW,247,13.0,13.0,64,0.00,,,0.00,WUHU21623XXSP,2013-03-17 18:50:00,
2013-03-17 13:55:00,29.1,18.4,30.11,WSW,247,12.3,13.0,64,0.00,,,0.00,WUHU21623XXSP,2013-03-17 18:55:00,
2013-03-17 14:00:00,28.9,18.3,30.11,WSW,247,7.6,12.3,64,0.00,,,0.00,WUHU21623XXSP,2013-03-17 19:00:00,
2013-03-17 14:05:00,29.1,18.4,30.10,WSW,247,7.2,12.3,64,0.00,,,0.00,WUHU21623XXSP,2013-03-17 19:05:00,
2013-03-17 14:10:00,29.8,19.4,30.09,WSW,247,8.3,9.2,65,0.00,,,0.00,WUHU21623XXSP,2013-03-17 19:10:00,
2013-03-17 14:15:00,28.9,18.3,30.09,WSW,247,10.7,14.3,64,0.00,,,0.00,WUHU21623XXSP,2013-03-17 19:15:00,
2013-03-17 14:20:00,29.5,18.9,30.09,WSW,247,10.7,14.3,64,0.00,,,0.00,WUHU21623XXSP,2013-03-17 19:20:00,
2013-03-17 14:25:00,30.4,19.2,30.09,WSW,247,8.7,10.7,63,0.00,,,0.00,WUHU21623XXSP,2013-03-17 19:25:00,
2013-03-17 14:30:00,29.7,18.7,30.08,WSW,247,11.6,11.6,63,0.00,,,0.00,WUHU21623XXSP,2013-03-17 19:30:00,
2013-03-17 14:35:00,29.7,19.1,30.09,WSW,247,10.3,11.6,64,0.00,,,0.00,WUHU21623XXSP,2013-03-17 19:35:00,
2013-03-17 14:40:00,29.8,18.8,30.08,WSW,247,7.6,10.3,65,0.00,,,0.00,WUHU21623XXSP,2013-03-17 19:40:00,
2013-03-17 14:45:00,29.3,18.6,30.08,WSW,247,7.4,10.7,65,0.00,,,0.00,WUHU21623XXSP,2013-03-17 19:45:00,
2013-03-17 14:50:00,30.2,19.4,30.08,WSW,247,10.7,11.0,64,0.00,,,0.00,WUHU21623XXSP,2013-03-17 19:50:00,
2013-03-17 14:55:00,30.6,19.9,30.08,WSW,247,9.4,11.0,64,0.00,,,0.00,WUHU21623XXSP,2013-03-17 19:55:00,
2013-03-17 15:00:00,30.9,19.8,30.08,WSW,247,7.2,9.4,63,0.00,,,0.00,WUHU21623XXSP,2013-03-17 20:00:00,
2013-03-17 15:05:00,30.7,19.9,30.08,WSW,247,11.2,12.3,64,0.00,,,0.00,WUHU21623XXSP,2013-03-17 20:05:00,
2013-03-17 15:10:00,30.6,19.8,30.08,WSW,247,9.2,12.3,64,0.00,,,0.00,WUHU21623XXSP,2013-03-17 20:10:00,
2013-03-17 15:15:00,30.4,19.6,30.07,WSW,247,4.7,11.6,64,0.00,,,0.00,WUHU21623XXSP,2013-03-17 20:15:00,
2013-03-17 15:20:00,31.3,20.5,30.07,WSW,247,4.7,11.6,64,0.00,,,0.00,WUHU21623XXSP,2013-03-17 20:20:00,
2013-03-17 15:25:00,30.9,20.1,30.07,WSW,247,13.0,13.0,64,0.00,,,0.00,WUHU21623XXSP,2013-03-17 20:25:00,
2013-03-17 15:30:00,30.9,19.0,30.07,WSW,247,11.6,13.0,61,0.00,,,0.00,WUHU21623XXSP,2013-03-17 20:30:00,
2013-03-17 15:35:00,31.6,20.1,30.07,WSW,247,4.5,11.6,62,0.00,,,0.00,WUHU21623XXSP,2013-03-17 20:35:00,
2013-03-17 15:40:00,31.8,19.9,30.07,SW,225,8.3,8.3,61,0.00,,,0.00,WUHU21623XXSP,2013-03-17 20:40:00,
2013-03-17 15:45:00,31.3,20.1,30.07,SW,225,6.7,11.0,63,0.00,,,0.00,WUHU21623XXSP,2013-03-17 20:45:00,
2013-03-17 15:50:00,31.3,19.8,30.07,SW,225,10.7,11.0,62,0.00,,,0.00,WUHU21623XXSP,2013-03-17 20:50:00,
2013-03-17 15:55:00,31.3,19.4,30.07,SW,225,8.5,10.7,61,0.00,,,0.00,WUHU21623XXSP,2013-03-17 20:55:00,
2013-03-17 16:00:00,32.7,20.8,30.06,SW,225,8.3,8.7,61,0.00,,,0.00,WUHU21623XXSP,2013-03-17 21:00:00,
2013-03-17 16:05:00,33.6,21.2,30.06,SSW,202,12.5,12.5,60,0.00,,,0.00,WUHU21623XXSP,2013-03-17 21:05:00,
2013-03-17 16:10:00,32.5,20.2,30.06,South,180,9.2,12.5,60,0.00,,,0.00,WUHU21623XXSP,2013-03-17 21:10:00,
2013-03-17 16:15:00,32.4,20.4,30.06,SSE,157,8.9,11.2,61,0.00,,,0.00,WUHU21623XXSP,2013-03-17 21:15:00,
2013-03-17 16:20:00,31.6,20.5,30.06,SE,135,11.2,15.2,63,0.00,,,0.00,WUHU21623XXSP,2013-03-17 21:20:00,
2013-03-17 16:25:00,32.7,21.1,30.06,ESE,112,8.7,15.2,62,0.00,,,0.00,WUHU21623XXSP,2013-03-17 21:25:00,
2013-03-17 16:30:00,31.8,19.9,30.06,ESE,112,11.0,11.2,61,0.00,,,0.00,WUHU21623XXSP,2013-03-17 21:30:00,
2013-03-17 16:35:00,30.9,19.8,30.06,ESE,112,8.3,11.2,63,0.00,,,0.00,WUHU21623XXSP,2013-03-17 21:35:00,
2013-03-17 16:40:00,30.2,19.4,30.06,ESE,112,7.8,8.3,64,0.00,,,0.00,WUHU21623XXSP,2013-03-17 21:40:00,
2013-03-17 16:45:00,29.7,19.3,30.05,ESE,112,8.3,17.0,65,0.00,,,0.00,WUHU21623XXSP,2013-03-17 21:45:00,
2013-03-17 16:50:00,29.5,19.1,30.05,ESE,112,10.3,17.0,65,0.00,,,0.00,WUHU21623XXSP,2013-03-17 21:50:00,
2013-03-17 16:55:00,29.8,19.8,30.06,ESE,112,10.1,11.4,66,0.00,,,0.00,WUHU21623XXSP,2013-03-17 21:55:00,
2013-03-17 17:00:00,30.7,20.3,30.06,ESE,112,8.1,11.4,64,0.00,,,0.00,WUHU21623XXSP,2013-03-17 22:00:00,
2013-03-17 17:05:00,31.3,20.1,30.05,ESE,112,11.0,11.0,63,0.00,,,0.00,WUHU21623XXSP,2013-03-17 22:05:00,
2013-03-17 17:10:00,32.4,20.8,30.05,ESE,112,6.0,11.0,62,0.00,,,0.00,WUHU21623XXSP,2013-03-17 22:10:00,
2013-03-17 17:15:00,32.5,21.0,30.04,ESE,112,8.9,11.2,62,0.00,,,0.00,WUHU21623XXSP,2013-03-17 22:15:00,
2013-03-17 17:20:00,32.5,21.0,30.04,ESE,112,8.1,11.2,62,0.00,,,0.00,WUHU21623XXSP,2013-03-17 22:20:00,
2013-03-17 17:25:00,31.8,20.3,30.04,ESE,112,7.8,12.8,62,0.00,,,0.00,WUHU21623XXSP,2013-03-17 22:25:00,
2013-03-17 17:30:00,31.1,20.3,30.03,ESE,112,8.5,13.2,64,0.00,,,0.00,WUHU21623XXSP,2013-03-17 22:30:00,
2013-03-17 17:35:00,30.9,20.1,30.03,ESE,112,11.9,13.2,64,0.00,,,0.00,WUHU21623XXSP,2013-03-17 22:35:00,
2013-03-17 17:40:00,30.9,20.1,30.04,ESE,112,8.5,11.9,64,0.00,,,0.00,WUHU21623XXSP,2013-03-17 22:40:00,
2013-03-17 17:45:00,30.2,19.8,30.03,ESE,112,4.3,11.4,65,0.00,,,0.00,WUHU21623XXSP,2013-03-17 22:45:00,
2013-03-17 17:50:00,30.4,19.6,30.03,ESE,112,9.2,11.4,64,0.00,,,0.00,WUHU21623XXSP,2013-03-17 22:50:00,
2013-03-17 17:55:00,30.4,19.6,30.03,ESE,112,9.6,10.7,64,0.00,,,0.00,WUHU21623XXSP,2013-03-17 22:55:00,
2013-03-17 18:00:00,30.2,19.0,30.03,ESE,112,9.8,10.7,63,0.00,,,0.00,WUHU21623XXSP,2013-03-17 23:00:00,
2013-03-17 18:05:00,30.0,19.2,30.03,ESE,112,5.6,11.4,64,0.00,,,0.00,WUHU21623XXSP,2013-03-17 23:05:00,
2013-03-17 18:10:00,30.0,19.2,30.03,ESE,112,6.0,11.4,64,0.00,,,0.00,WUHU21623XXSP,2013-03-17 23:10:00,
2013-03-17 18:15:00,29.3,18.9,30.03,ESE,112,8.9,8.9,65,0.00,,,0.00,WUHU21623XXSP,2013-03-17 23:15:00,
2013-03-17 18:20:00,28.9,19.0,30.03,ESE,112,9.2,10.7,66,0.00,,,0.00,WUHU21623XXSP,2013-03-17 23:20:00,
2013-03-17 18:25:00,28.8,19.2,30.03,ESE,112,14.3,14.3,67,0.00,,,0.00,WUHU21623XXSP,2013-03-17 23:25:00,
2013-03-17 18:30:00,28.6,19.0,30.02,ESE,112,7.2,14.3,67,0.00,,,0.00,WUHU21623XXSP,2013-03-17 23:30:00,
2013-03-17 18:35:00,28.2,18.7,30.03,ESE,112,14.8,14.8,67,0.00,,,0.00,WUHU21623XXSP,2013-03-17 23:35:00,
2013-03-17 18:40:00,28.2,18.7,30.03,ESE,112,5.8,14.8,67,0.00,,,0.00,WUHU21623XXSP,2013-03-17 23:40:00,
2013-03-17 18:45:00,28.0,18.5,30.02,ESE,112,9.6,14.5,67,0.00,,,0.00,WUHU21623XXSP,2013-03-17 23:45:00,
2013-03-17 18:50:00,28.0,18.5,30.02,ESE,112,7.6,11.2,67,0.00,,,0.00,WUHU21623XXSP,2013-03-17 23:50:00,
2013-03-17 18:55:00,27.7,18.5,30.02,ESE,112,8.3,8.3,68,0.00,,,0.00,WUHU21623XXSP,2013-03-17 23:55:00,
2013-03-17 19:00:00,27.5,18.3,30.02,ESE,112,10.3,10.3,68,0.00,,,0.00,WUHU21623XXSP,2013-03-18 00:00:00,
2013-03-17 19:05:00,27.3,18.1,30.02,ESE,112,9.2,10.3,68,0.00,,,0.00,WUHU21623XXSP,2013-03-18 00:05:00,
2013-03-17 19:10:00,27.1,18.0,30.02,ESE,112,11.2,11.2,69,0.00,,,0.00,WUHU21623XXSP,2013-03-18 00:10:00,
2013-03-17 19:15:00,27.0,18.1,30.02,ESE,112,8.9,11.2,69,0.00,,,0.00,WUHU21623XXSP,2013-03-18 00:15:00,
2013-03-17 19:20:00,26.8,18.1,30.02,ESE,112,9.2,10.5,69,0.00,,,0.00,WUHU21623XXSP,2013-03-18 00:20:00,
2013-03-17 19:25:00,26.8,18.0,30.03,ESE,112,10.3,10.5,69,0.00,,,0.00,WUHU21623XXSP,2013-03-18 00:25:00,
2013-03-17 19:30:00,26.2,17.8,30.03,ESE,112,8.9,10.3,70,0.00,,,0.00,WUHU21623XXSP,2013-03-18 00:30:00,
2013-03-17 19:35:00,26.2,18.1,30.03,ESE,112,8.7,8.9,71,0.00,,,0.00,WUHU21623XXSP,2013-03-18 00:35:00,
2013-03-17 19:40:00,25.9,17.7,30.03,ESE,112,5.1,9.4,71,0.00,,,0.00,WUHU21623XXSP,2013-03-18 00:40:00,
2013-03-17 19:45:00,25.7,17.5,30.03,ESE,112,11.2,11.2,71,0.00,,,0.00,WUHU21623XXSP,2013-03-18 00:45:00,
2013-03-17 19:50:00,25.7,17.9,30.02,ESE,112,7.4,11.2,72,0.00,,,0.00,WUHU21623XXSP,2013-03-18 00:50:00,
2013-03-17 19:55:00,25.5,17.7,30.02,ESE,112,8.7,8.7,72,0.00,,,0.00,WUHU21623XXSP,2013-03-18 00:55:00,
2013-03-17 20:00:00,25.5,17.7,30.02,ESE,112,7.4,8.9,72,0.00,,,0.00,WUHU21623XXSP,2013-03-18 01:00:00,
2013-03-17 20:05:00,25.5,18.0,30.02,ESE,112,6.9,10.5,73,0.00,,,0.00,WUHU21623XXSP,2013-03-18 01:05:00,
2013-03-17 20:10:00,25.5,17.8,30.02,ESE,112,6.9,10.5,73,0.00,,,0.00,WUHU21623XXSP,2013-03-18 01:10:00,
2013-03-17 20:15:00,25.3,18.1,30.02,ESE,112,4.7,6.9,74,0.00,,,0.00,WUHU21623XXSP,2013-03-18 01:15:00,
2013-03-17 20:20:00,25.5,18.3,30.02,ESE,112,7.4,9.6,74,0.00,,,0.00,WUHU21623XXSP,2013-03-18 01:20:00,
2013-03-17 20:25:00,25.5,18.3,30.02,ESE,112,7.2,11.0,74,0.00,,,0.00,WUHU21623XXSP,2013-03-18 01:25:00,
2013-03-17 20:30:00,25.3,18.5,30.02,ESE,112,7.2,11.0,75,0.00,,,0.00,WUHU21623XXSP,2013-03-18 01:30:00,
2013-03-17 20:35:00,25.3,18.5,30.02,ESE,112,7.8,7.8,75,0.00,,,0.00,WUHU21623XXSP,2013-03-18 01:35:00,
2013-03-17 20:40:00,25.3,18.5,30.01,ESE,112,9.2,10.5,75,0.00,,,0.00,WUHU21623XXSP,2013-03-18 01:40:00,
2013-03-17 20:45:00,25.2,18.3,30.01,ESE,112,10.1,10.5,75,0.00,,,0.00,WUHU21623XXSP,2013-03-18 01:45:00,
2013-03-17 20:50:00,25.2,18.3,30.01,ESE,112,8.5,10.1,75,0.00,,,0.00,WUHU21623XXSP,2013-03-18 01:50:00,
2013-03-17 20:55:00,25.0,18.4,30.01,ESE,112,8.3,9.4,76,0.00,,,0.00,WUHU21623XXSP,2013-03-18 01:55:00,
2013-03-17 21:00:00,25.0,18.4,30.01,ESE,112,8.9,11.9,76,0.00,,,0.00,WUHU21623XXSP,2013-03-18 02:00:00,
2013-03-17 21:05:00,25.0,18.4,30.00,ESE,112,9.8,11.9,76,0.00,,,0.00,WUHU21623XXSP,2013-03-18 02:05:00,
2013-03-17 21:10:00,25.0,18.8,30.00,ESE,112,6.0,10.1,77,0.00,,,0.00,WUHU21623XXSP,2013-03-18 02:10:00,
2013-03-17 21:15:00,24.8,18.6,30.00,ESE,112,10.3,10.3,77,0.00,,,0.00,WUHU21623XXSP,2013-03-18 02:15:00,
2013-03-17 21:20:00,24.6,18.4,30.00,ESE,112,6.5,10.3,77,0.00,,,0.00,WUHU21623XXSP,2013-03-18 02:20:00,
2013-03-17 21:25:00,24.6,18.4,30.00,ESE,112,8.1,8.1,77,0.00,,,0.00,WUHU21623XXSP,2013-03-18 02:25:00,
2013-03-17 21:30:00,24.6,18.4,29.99,ESE,112,13.0,13.2,77,0.00,,,0.00,WUHU21623XXSP,2013-03-18 02:30:00,
2013-03-17 21:35:00,24.6,18.4,29.99,ESE,112,11.9,15.2,77,0.00,,,0.00,WUHU21623XXSP,2013-03-18 02:35:00,
2013-03-17 21:40:00,24.8,18.6,29.99,ESE,112,7.6,15.2,77,0.00,,,0.00,WUHU21623XXSP,2013-03-18 02:40:00,
2013-03-17 21:45:00,24.6,18.4,29.99,ESE,112,8.5,8.9,77,0.00,,,0.00,WUHU21623XXSP,2013-03-18 02:45:00,
2013-03-17 21:50:00,24.6,18.4,30.00,ESE,112,8.9,8.9,77,0.00,,,0.00,WUHU21623XXSP,2013-03-18 02:50:00,
2013-03-17 21:55:00,24.6,18.4,29.99,ESE,112,10.1,10.1,77,0.00,,,0.00,WUHU21623XXSP,2013-03-18 02:55:00,
2013-03-17 22:00:00,24.6,18.4,29.98,ESE,112,7.6,10.1,77,0.00,,,0.00,WUHU21623XXSP,2013-03-18 03:00:00,
2013-03-17 22:05:00,24.4,18.2,29.98,ESE,112,6.5,7.6,77,0.00,,,0.00,WUHU21623XXSP,2013-03-18 03:05:00,
2013-03-17 22:10:00,24.4,18.2,29.98,ESE,112,7.2,7.6,77,0.00,,,0.00,WUHU21623XXSP,2013-03-18 03:10:00,
2013-03-17 22:15:00,24.4,18.2,29.98,ESE,112,5.4,10.1,77,0.00,,,0.00,WUHU21623XXSP,2013-03-18 03:15:00,
2013-03-17 22:20:00,24.4,18.2,29.98,ESE,112,8.9,10.1,77,0.00,,,0.00,WUHU21623XXSP,2013-03-18 03:20:00,
2013-03-17 22:25:00,24.4,18.2,29.98,ESE,112,5.4,8.9,77,0.00,,,0.00,WUHU21623XXSP,2013-03-18 03:25:00,
2013-03-17 22:30:00,24.4,18.6,29.97,ESE,112,5.8,8.7,78,0.00,,,0.00,WUHU21623XXSP,2013-03-18 03:30:00,
2013-03-17 22:35:00,24.1,18.2,29.96,ESE,112,8.1,8.1,78,0.00,,,0.00,WUHU21623XXSP,2013-03-18 03:35:00,
2013-03-17 22:40:00,24.1,18.2,29.96,ESE,112,7.6,8.1,78,0.00,,,0.00,WUHU21623XXSP,2013-03-18 03:40:00,
2013-03-17 22:45:00,24.1,18.2,29.97,ESE,112,11.2,11.2,78,0.00,,,0.00,WUHU21623XXSP,2013-03-18 03:45:00,
2013-03-17 22:50:00,24.1,18.2,29.96,ESE,112,5.1,11.2,78,0.00,,,0.00,WUHU21623XXSP,2013-03-18 03:50:00,
2013-03-17 22:55:00,24.1,18.2,29.96,ESE,112,9.2,9.2,78,0.00,,,0.00,WUHU21623XXSP,2013-03-18 03:55:00,
2013-03-17 23:00:00,24.1,18.2,29.96,ESE,112,8.1,9.2,78,0.00,,,0.00,WUHU21623XXSP,2013-03-18 04:00:00,
2013-03-17 23:05:00,24.1,18.2,29.96,ESE,112,5.4,8.1,78,0.00,,,0.00,WUHU21623XXSP,2013-03-18 04:05:00,
2013-03-17 23:10:00,23.9,18.0,29.96,ESE,112,3.8,8.1,78,0.00,,,0.00,WUHU21623XXSP,2013-03-18 04:10:00,
2013-03-17 23:15:00,23.7,17.9,29.95,ESE,112,4.5,6.5,78,0.00,,,0.00,WUHU21623XXSP,2013-03-18 04:15:00,
2013-03-17 23:20:00,23.7,17.9,29.95,ESE,112,8.3,8.3,78,0.00,,,0.00,WUHU21623XXSP,2013-03-18 04:20:00,
2013-03-17 23:25:00,23.7,18.2,29.94,ESE,112,4.5,8.3,79,0.00,,,0.00,WUHU21623XXSP,2013-03-18 04:25:00,
2013-03-17 23:30:00,23.7,18.2,29.94,ESE,112,4.5,7.8,78,0.00,,,0.00,WUHU21623XXSP,2013-03-18 04:30:00,
2013-03-17 23:35:00,23.5,18.0,29.93,ESE,112,2.9,4.5,79,0.00,,,0.00,WUHU21623XXSP,2013-03-18 04:35:00,
2013-03-17 23:40:00,23.5,18.0,29.94,ESE,112,5.6,5.6,79,0.00,,,0.00,WUHU21623XXSP,2013-03-18 04:40:00,
2013-03-17 23:45:00,23.5,18.0,29.93,ESE,112,4.0,5.6,79,0.00,,,0.00,WUHU21623XXSP,2013-03-18 04:45:00,
2013-03-17 23:50:00,23.5,18.0,29.93,ESE,112,8.1,8.1,79,0.00,,,0.00,WUHU21623XXSP,2013-03-18 04:50:00,
2013-03-17 23:55:00,23.4,17.8,29.92,ESE,112,8.5,8.5,79,0.00,,,0.00,WUHU21623XXSP,2013-03-18 04:55:00,